Simultaneous Nadir Overpasses (SNOs) Predictions

Prediction of SNOs between FY3D and METOP-C Satellite Orbit:

Table of predicted SNOs for the next 14.0 days since TLE Epoch: 4/10/2021
Index Date (FY3D) Time (FY3D) Lat,Lon (FY3D) SZA (FY3D ) Date (METOP-C) Time (METOP-C) Lat,Lon (METOP-C) SZA (METOP-C ) Distance(km) Time Diff (sec)
1 04/10/2021 03:36:16 73.28, 119.14 65.32 04/10/2021 03:37:17 73.27, 119.06 65.30 2.83 61
2 04/10/2021 04:27:00 -73.28, -73.55 114.70 04/10/2021 04:27:58 -73.27, -73.62 114.72 2.67 58
3 04/10/2021 05:17:45 73.28, 93.77 65.29 04/10/2021 05:18:38 73.30, 93.78 65.30 2.56 53
4 04/10/2021 06:08:29 -73.28, -98.92 114.72 04/10/2021 06:09:19 -73.30, -98.89 114.72 2.00 50
5 04/10/2021 06:59:14 73.28, 68.40 65.27 04/10/2021 07:00:00 73.28, 68.40 65.26 0.06 46
6 04/10/2021 07:49:58 -73.28,-124.29 114.75 04/10/2021 07:50:41 -73.28,-124.28 114.76 0.79 43
7 04/10/2021 08:40:43 73.28, 43.02 65.24 04/10/2021 08:41:22 73.26, 43.01 65.21 2.45 39
8 04/10/2021 09:31:27 -73.28,-149.67 114.77 04/10/2021 09:32:03 -73.26,-149.66 114.81 3.11 36
9 04/10/2021 10:22:12 73.28, 17.65 65.22 04/10/2021 10:22:43 73.29, 17.74 65.22 2.91 31
10 04/10/2021 11:12:56 -73.28,-175.04 114.80 04/10/2021 11:13:24 -73.28,-174.94 114.81 3.25 28
11 04/10/2021 12:03:41 73.28, -7.72 65.19 04/10/2021 12:04:05 73.27, -7.65 65.17 3.03 24
12 04/10/2021 12:54:24 -73.24, 159.70 114.87 04/10/2021 12:54:46 -73.26, 159.68 114.85 3.16 22
13 04/10/2021 13:45:09 73.23, -32.99 65.11 04/10/2021 13:45:27 73.25, -33.03 65.13 2.00 18
14 04/10/2021 14:35:53 -73.24, 134.32 114.90 04/10/2021 14:36:08 -73.24, 134.29 114.90 1.24 15
15 04/10/2021 15:26:38 73.24, -58.36 65.09 04/10/2021 15:26:49 73.23, -58.42 65.08 2.24 11
16 04/10/2021 16:17:22 -73.24, 108.95 114.92 04/10/2021 16:17:30 -73.22, 108.90 114.94 2.35 8
17 04/10/2021 17:08:07 73.24, -83.73 65.07 04/10/2021 17:08:10 73.26, -83.69 65.08 2.32 3
18 04/10/2021 17:58:51 -73.24, 83.58 114.95 04/10/2021 17:58:51 -73.25, 83.63 114.94 2.13 0
19 04/10/2021 18:49:36 73.24,-109.11 65.04 04/10/2021 18:49:32 73.23,-109.08 65.04 1.05 4
20 04/10/2021 19:40:20 -73.24, 58.20 114.97 04/10/2021 19:40:13 -73.23, 58.24 114.98 1.82 7
21 04/10/2021 20:31:05 73.24,-134.48 65.02 04/10/2021 20:30:54 73.21,-134.46 64.99 3.08 11
22 04/10/2021 21:21:48 -73.19, 32.94 115.05 04/10/2021 21:21:35 -73.21, 32.86 115.03 3.19 13
23 04/10/2021 22:12:33 73.19,-159.74 64.94 04/10/2021 22:12:16 73.19,-159.85 64.95 3.44 17
24 04/10/2021 23:03:17 -73.20, 7.57 115.08 04/10/2021 23:02:57 -73.19, 7.47 115.07 3.02 20
25 04/10/2021 23:54:02 73.19, 174.88 64.91 04/10/2021 23:53:37 73.22, 174.87 64.95 3.19 25
26 04/11/2021 00:44:46 -73.20, -17.81 115.10 04/11/2021 00:44:18 -73.22, -17.80 115.07 2.52 28
27 04/11/2021 01:35:31 73.20, 149.51 64.89 04/11/2021 01:34:59 73.20, 149.49 64.90 0.94 32
28 04/11/2021 02:26:15 -73.20, -43.18 115.12 04/11/2021 02:25:40 -73.20, -43.19 115.12 0.16 35
29 04/11/2021 03:16:59 73.20, 124.14 64.87 04/11/2021 03:16:20 73.18, 124.10 64.86 2.06 39
30 04/11/2021 04:07:43 -73.20, -68.56 115.15 04/11/2021 04:07:01 -73.18, -68.57 115.16 2.49 42
31 04/11/2021 04:58:28 73.20, 98.76 64.84 04/11/2021 04:57:41 73.21, 98.83 64.86 2.54 47
32 04/11/2021 05:49:12 -73.20, -93.93 115.17 04/11/2021 05:48:22 -73.21, -93.85 115.16 2.73 50
33 04/11/2021 06:39:57 73.20, 73.39 64.82 04/11/2021 06:39:03 73.19, 73.44 64.81 2.14 54
34 04/11/2021 07:30:41 -73.20,-119.30 115.20 04/11/2021 07:29:44 -73.19,-119.23 115.21 2.91 57
35 04/11/2021 08:21:25 73.15, 48.13 64.74 04/11/2021 08:20:25 73.17, 48.06 64.77 2.88 60
36 04/11/2021 09:12:09 -73.16,-144.57 115.27 04/11/2021 09:11:06 -73.17,-144.62 115.25 2.08 63
37 04/11/2021 10:02:54 73.15, 22.75 64.71 04/11/2021 10:01:47 73.15, 22.67 64.72 2.58 67
38 04/11/2021 10:53:38 -73.16,-169.94 115.30 04/11/2021 10:52:28 -73.15,-170.00 115.30 2.33 70
39 04/11/2021 11:44:23 73.16, -2.62 64.69 04/11/2021 11:43:08 73.18, -2.60 64.72 2.63 75
40 04/11/2021 12:35:05 -73.06, 164.91 115.43 04/11/2021 12:33:51 -73.08, 164.51 115.39 13.14 74
41 04/11/2021 13:25:47 72.91, -27.45 64.40 04/11/2021 13:24:35 72.90, -28.53 64.45 35.29 72
42 04/11/2021 14:16:29 -72.81, 140.07 115.72 04/11/2021 14:15:18 -72.80, 138.59 115.66 48.81 71
43 04/11/2021 15:07:10 72.60, -52.19 64.05 04/11/2021 15:06:02 72.63, -54.44 64.18 74.87 68
44 04/11/2021 15:57:52 -72.51, 115.33 116.07 04/11/2021 15:56:45 -72.53, 112.69 115.93 88.21 67



Historial Predications of SNOs between FY3D and METOP-C
